{"data":{"norad_id":55479,"epoch":"2026-09-20T19:22:04.776672Z","epoch_age_seconds":73844,"freshness":"FRESH","line1":"1 55479U 23015AG  26263.80699973 -.00000215  00000+0  16977-5 0  9994","line2":"2 55479  43.0029 299.6861 0001050 286.7819  73.2918 15.27575824200646","mean_motion":15.27575824,"eccentricity":0.000105,"inclination_deg":43.0029,"raan_deg":299.6861,"arg_perigee_deg":286.7819,"mean_anomaly_deg":73.2918,"bstar":1.6977e-6,"rev_number":20064,"period_min":94.267006414734,"perigee_km":482.34117466139,"apogee_km":483.7820263675,"semimajor_km":6861.1986005144,"source":"CELESTRAK","updated_at":"2026-09-21T09:00:33.234266Z"}}